Location: Monrovia
(34.7865°N, 86.7139°W)
Time: 22:02:27
(UTC+00:00)

Cosmos 921 Rocket - Pass Details

Date: 14 July 2020
Orbit: 572 x 632 km, 75.8° (Epoch: 08 August)

Event Time Altitude Azimuth Distance (km) Brightness Sun altitude
Rises 08:36:38 0° 342° (NNW) 2,877 6.9 -21.5°
Reaches altitude 10° 08:38:54 10° 340° (NNW) 1,959 6.0 -21.2°
Maximum altitude 08:43:14 69° 258° (WSW) 642 2.9 -20.6°
Enters shadow 08:44:00 55° 201° (SSW) 720 3.0 -20.5°
